Hourly Data Report for September 11, 2017

All times are specified in Local Standard Time (LST). Add 1 hour to adjust for Daylight Saving Time where and when it is observed.

QIKIQTARJUAQ A
NUNAVUT

67°32'48.000" N
64°01'54.000" W
5.50 m
2400577
YVM

Download Data

Hourly Data (September 2017)
Hourly Data Report for September 11, 2017
Temp Definition
°C
Dew Point Temp Definition
°C
Rel Hum Definition
%
Wind Dir Definition
10's deg

Wind Spd Definition
km/h
Visibility Definition
km
Stn Press Definition
kPa
Hmdx Definition


Wind Chill Definition


Weather Definition


TIME
00:00 Legend Double Dagger 0.9 -1.8 82 22 5 16.1 100.42     LegendNANA
01:00 Legend Double Dagger 0.8 -1.1 87 21 11 16.1 100.46     LegendNANA
02:00 Legend Double Dagger 0.6 -1.2 88 21 13 16.1 100.47     LegendNANA
03:00 Legend Double Dagger 0.7 -1.7 84 18 5 16.1 100.50     LegendNANA
04:00 Legend Double Dagger -0.2 -2.0 88 LegendMM 4 16.1 100.51   -1 LegendNANA
05:00 Legend Double Dagger -0.6 -2.6 86 LegendMM 4 16.1 100.50   -2 LegendNANA
06:00 Legend Double Dagger -0.3 -3.5 79 21 5 16.1 100.54   -2 LegendNANA
07:00 Legend Double Dagger 1.6 -2.7 73 19 8 16.1 100.54     LegendNANA
08:00 Legend Double Dagger 2.1 -1.4 77 LegendMM 4 16.1 100.55     LegendNANA
09:00 Legend Double Dagger 3.0 -3.1 64   0 16.1 100.58     LegendNANA
10:00 Legend Double Dagger 3.7 -0.3 75 29 9 16.1 100.60     LegendNANA
11:00 Legend Double Dagger 4.1 -4.0 56 26 4 16.1 100.62     LegendNANA
12:00 Legend Double Dagger 5.0 -4.8 49 6 8 16.1 100.63     LegendNANA
13:00 Legend Double Dagger 4.6 -3.3 57 31 8 16.1 100.67     LegendNANA
14:00 Legend Double Dagger 4.6 -5.6 48 LegendMM 4 16.1 100.69     LegendNANA
15:00 Legend Double Dagger 4.8 -3.4 56 25 5 16.1 100.70     LegendNANA
16:00 Legend Double Dagger 4.0 -4.3 55 23 15 16.1 100.73     LegendNANA
17:00 Legend Double Dagger 3.6 -3.3 61 26 9 16.1 100.78     LegendNANA
18:00 Legend Double Dagger 3.1 -3.3 63 19 9 16.1 100.77     LegendNANA
19:00 Legend Double Dagger 3.3 -3.6 60 22 8 16.1 100.82     LegendNANA
20:00 Legend Double Dagger 3.1 -3.2 64 21 11 16.1 100.81     LegendNANA
21:00 Legend Double Dagger 3.1 -3.7 61 21 8 16.1 100.80     LegendNANA
22:00 Legend Double Dagger 2.7 -1.8 72   0 16.1 100.77     LegendNANA
23:00 Legend Double Dagger 2.8 -3.8 62   0 16.1 100.76     LegendNANA

Notes on Data Quality.

Legend

  • E = Estimated
  • M = Missing
  • NA = Not Available
  • ‡ = Partner data that is not subject to review by the National Climate Archives
Date modified: